Terminal Aerodrome Forecast
Issued by NWS Rapid City, SD

Home | Current Version | Previous Version | Graphics & Text | Print | Product List | Glossary On
Versions: 1 2 3 4 5 6 7 8 9 10 11 12 13 14 15 16 17 18 19 20 21 22 23 24 25 26 27 28 29
865
FTUS43 KUNR 292253 AAB
TAFRAP
TAF AMD
KRAP 292253Z 2923/3018 20007KT P6SM VCTS SCT060CB BKN150
     FM300100 VRB05KT P6SM SCT070=

USA.gov is the U.S. government's official web portal to all federal, state and local government web resources and services.